TimeEST,TemperatureF,Dew PointF,Humidity,Sea Level PressureIn,VisibilityMPH,Wind Direction,Wind SpeedMPH,Gust SpeedMPH,PrecipitationIn,Events,Conditions,WindDirDegrees,DateUTC
12:54 AM,44.1,37.0,76,30.04,10.0,ESE,3.5,-,N/A,,Overcast,110,2012-12-29 05:54:00
1:54 AM,45.0,37.0,74,30.00,10.0,East,4.6,-,N/A,,Overcast,100,2012-12-29 06:54:00
2:18 AM,46.4,37.4,71,29.98,10.0,East,6.9,-,N/A,,Overcast,100,2012-12-29 07:18:00
2:54 AM,46.0,36.0,68,29.99,10.0,ENE,5.8,-,N/A,,Overcast,60,2012-12-29 07:54:00
3:02 AM,46.4,35.6,66,29.98,10.0,NE,5.8,-,N/A,,Overcast,50,2012-12-29 08:02:00
4:10 AM,46.4,35.6,66,29.94,10.0,NE,4.6,-,N/A,,Overcast,40,2012-12-29 09:10:00
4:54 AM,46.0,37.9,73,29.91,10.0,NE,6.9,-,0.00,Rain,Light Rain,40,2012-12-29 09:54:00
5:54 AM,46.0,39.9,79,29.88,6.0,North,5.8,-,0.02,Rain,Light Rain,10,2012-12-29 10:54:00
6:54 AM,46.9,42.1,83,29.86,5.0,ENE,6.9,-,0.12,Rain,Rain,60,2012-12-29 11:54:00
7:33 AM,48.2,42.8,82,29.79,6.0,ENE,11.5,-,0.11,Rain,Light Rain,70,2012-12-29 12:33:00
7:54 AM,48.0,44.1,86,29.77,6.0,East,9.2,-,0.15,Rain,Rain,90,2012-12-29 12:54:00
8:47 AM,48.2,44.6,87,29.74,2.5,East,8.1,-,0.18,Rain,Rain,90,2012-12-29 13:47:00
8:54 AM,48.9,46.0,90,29.72,3.0,East,8.1,-,0.20,Rain,Rain,90,2012-12-29 13:54:00
9:18 AM,50.0,46.4,87,29.68,2.5,East,9.2,-,0.11,Rain,Rain,80,2012-12-29 14:18:00
9:25 AM,50.0,46.4,87,29.69,3.0,East,9.2,-,0.12,Rain,Rain,100,2012-12-29 14:25:00
9:50 AM,51.8,46.4,82,29.65,6.0,East,9.2,-,0.15,Rain,Light Rain,100,2012-12-29 14:50:00
9:54 AM,51.1,46.9,86,29.65,5.0,East,8.1,-,0.16,Rain,Light Rain,90,2012-12-29 14:54:00
10:17 AM,51.8,48.2,88,29.64,1.8,NE,6.9,-,0.05,Rain,Heavy Rain,40,2012-12-29 15:17:00
10:54 AM,54.0,50.0,86,29.59,2.0,ENE,3.5,-,0.08,Rain,Light Rain,60,2012-12-29 15:54:00
11:06 AM,53.6,50.0,88,29.59,1.5,NW,4.6,-,0.01,Rain,Light Rain,320,2012-12-29 16:06:00
11:17 AM,53.6,50.0,88,29.59,1.2,WNW,8.1,-,0.03,Rain,Light Rain,300,2012-12-29 16:17:00
11:43 AM,53.6,51.8,94,29.58,3.0,WNW,10.4,-,0.08,Rain,Light Rain,290,2012-12-29 16:43:00
11:52 AM,53.6,51.8,94,29.57,2.5,West,9.2,-,0.08,Rain,Light Rain,280,2012-12-29 16:52:00
11:54 AM,54.0,51.1,90,29.58,2.5,WNW,12.7,-,0.08,Rain,Light Rain,290,2012-12-29 16:54:00
12:06 PM,51.8,48.2,88,29.58,1.2,WNW,18.4,24.2,0.02,Rain,Light Rain,290,2012-12-29 17:06:00
12:14 PM,51.8,46.4,82,29.58,2.5,WNW,24.2,32.2,0.02,Rain,Light Rain,290,2012-12-29 17:14:00
12:27 PM,48.2,44.6,87,29.58,5.0,WNW,16.1,25.3,0.02,Rain,Light Rain,300,2012-12-29 17:27:00
12:54 PM,48.9,45.0,86,29.57,4.0,WNW,15.0,-,0.02,Rain,Light Rain,290,2012-12-29 17:54:00
1:50 PM,48.2,44.6,87,29.57,10.0,WNW,11.5,-,0.00,,Overcast,290,2012-12-29 18:50:00
1:54 PM,48.9,44.1,83,29.57,10.0,WNW,15.0,-,0.00,,Overcast,300,2012-12-29 18:54:00
2:23 PM,50.0,44.6,82,29.57,10.0,West,15.0,20.7,N/A,,Overcast,280,2012-12-29 19:23:00
2:54 PM,50.0,44.1,80,29.58,10.0,WNW,18.4,-,N/A,,Mostly Cloudy,290,2012-12-29 19:54:00
3:03 PM,50.0,44.6,82,29.58,10.0,West,16.1,-,N/A,,Mostly Cloudy,280,2012-12-29 20:03:00
3:20 PM,50.0,42.8,76,29.58,10.0,WNW,19.6,28.8,N/A,,Scattered Clouds,290,2012-12-29 20:20:00
3:54 PM,50.0,42.1,74,29.60,10.0,West,17.3,25.3,N/A,,Partly Cloudy,280,2012-12-29 20:54:00
4:54 PM,48.0,41.0,77,29.64,10.0,West,11.5,-,N/A,,Clear,270,2012-12-29 21:54:00
5:54 PM,48.0,39.9,74,29.66,10.0,West,10.4,-,N/A,,Clear,270,2012-12-29 22:54:00
6:54 PM,48.0,39.0,71,29.69,10.0,West,11.5,-,N/A,,Clear,270,2012-12-29 23:54:00
7:54 PM,46.0,37.9,73,29.71,10.0,WSW,8.1,-,N/A,,Clear,250,2012-12-30 00:54:00
8:54 PM,46.9,37.0,68,29.75,10.0,West,11.5,20.7,N/A,,Clear,270,2012-12-30 01:54:00
9:54 PM,44.1,36.0,73,29.78,10.0,West,12.7,-,N/A,,Clear,280,2012-12-30 02:54:00
10:54 PM,43.0,33.1,68,29.81,10.0,West,15.0,-,N/A,,Clear,280,2012-12-30 03:54:00
11:54 PM,42.1,32.0,67,29.83,10.0,WNW,11.5,-,N/A,,Clear,290,2012-12-30 04:54:00